Voltar ao catálogo

ONEWEB-0207

AtivoComunicaçõesPO
NORAD 48242·PAYLOAD·🇬🇧 United Kingdom

Lançado Apr 25, 2021 de Vostochny Cosmodrome

Loading…

Próximas Passagens (próximas 24 horas)

TLE

AtualizadoSource: CelesTrak SupGP

Época: Sep 15, 2026, 03:57 UTC

1 48242C 21031AJ  26258.16508516 -.00004630  00000+0 -12505-1 0  2588
2 48242  87.8900 271.7585 0002029 102.4502 337.3448 13.14505989    14

Acompanhe ONEWEB-0207 em tempo real com AllMySat

Download on the App Store